Time,TemperatureF,DewpointF,PressureIn,WindDirection,WindDirectionDegrees,WindSpeedMPH,WindSpeedGustMPH,Humidity,HourlyPrecipIn,Conditions,Clouds,dailyrainin,SolarRadiationWatts/m^2,SoftwareType,DateUTC
2014-12-20 00:00:00,36.0,35.0,-100.00,South,178,4.0,9.0,93,-99.99,,,0.01,0.000000,,2014-12-20 08:00:00,
2014-12-20 00:43:00,36.0,35.0,-100.00,South,178,4.0,9.0,93,-99.99,,,0.01,0.000000,,2014-12-20 08:43:00,
2014-12-20 00:52:00,36.0,35.0,-100.00,South,178,4.0,9.0,93,-99.99,,,0.01,0.000000,,2014-12-20 08:52:00,
2014-12-20 01:00:00,37.0,35.0,-100.00,SW,215,6.0,9.0,92,-99.99,,,0.01,0.000000,,2014-12-20 09:00:00,
2014-12-20 01:43:00,37.0,35.0,-100.00,SW,215,6.0,9.0,92,-99.99,,,0.01,0.000000,,2014-12-20 09:43:00,
2014-12-20 01:53:00,37.0,35.0,-100.00,SW,215,6.0,9.0,92,-99.99,,,0.01,0.000000,,2014-12-20 09:53:00,
2014-12-20 02:00:00,38.0,35.0,-100.00,WSW,241,6.0,11.0,88,-99.99,,,0.01,0.000000,,2014-12-20 10:00:00,
2014-12-20 02:43:00,38.0,35.0,-100.00,WSW,241,6.0,11.0,88,-99.99,,,0.01,0.000000,,2014-12-20 10:43:00,
2014-12-20 02:53:00,38.0,35.0,-100.00,WSW,241,6.0,11.0,88,-99.99,,,0.01,0.000000,,2014-12-20 10:53:00,
2014-12-20 03:00:00,39.0,35.0,-100.00,SW,226,9.0,18.0,83,-99.99,,,0.01,0.000000,,2014-12-20 11:00:00,
2014-12-20 03:42:00,39.0,35.0,-100.00,SW,226,9.0,18.0,83,-99.99,,,0.01,0.000000,,2014-12-20 11:42:00,
2014-12-20 03:52:00,39.0,35.0,-100.00,SW,226,9.0,18.0,83,-99.99,,,0.01,0.000000,,2014-12-20 11:52:00,
2014-12-20 04:00:00,38.0,35.0,-100.00,WSW,242,7.0,9.0,89,-99.99,,,0.01,0.000000,,2014-12-20 12:00:00,
2014-12-20 04:42:00,38.0,35.0,-100.00,WSW,242,7.0,9.0,89,-99.99,,,0.01,0.000000,,2014-12-20 12:42:00,
2014-12-20 04:52:00,38.0,35.0,-100.00,WSW,242,7.0,9.0,89,-99.99,,,0.01,0.000000,,2014-12-20 12:52:00,
2014-12-20 05:00:00,39.0,36.0,-100.00,SW,225,9.0,13.0,89,-99.99,,,0.01,0.000000,,2014-12-20 13:00:00,
2014-12-20 05:42:00,39.0,36.0,-100.00,SW,225,9.0,13.0,89,-99.99,,,0.01,0.000000,,2014-12-20 13:42:00,
2014-12-20 05:52:00,39.0,36.0,-100.00,SW,225,9.0,13.0,89,-99.99,,,0.01,0.000000,,2014-12-20 13:52:00,
2014-12-20 06:00:00,39.0,37.0,-100.00,SSW,204,7.0,12.0,91,-99.99,,,0.01,0.000000,,2014-12-20 14:00:00,
2014-12-20 06:42:00,39.0,37.0,-100.00,SSW,204,7.0,12.0,91,-99.99,,,0.01,0.000000,,2014-12-20 14:42:00,
2014-12-20 06:52:00,39.0,37.0,-100.00,SSW,204,7.0,12.0,91,-99.99,,,0.01,0.000000,,2014-12-20 14:52:00,
2014-12-20 07:00:00,40.0,-99.9,-100.00,SSW,213,10.0,16.0,90,-99.99,,,0.01,0.000000,,2014-12-20 15:00:00,
2014-12-20 07:50:00,-999.0,-99.9,-100.00,SSW,213,10.0,16.0,90,-99.99,,,0.01,0.000000,,2014-12-20 15:50:00,
2014-12-20 08:00:00,-999.0,-99.9,-100.00,SSW,199,10.0,16.0,87,-99.99,,,0.01,4.650000,,2014-12-20 16:00:00,
2014-12-20 08:50:00,-999.0,-99.9,-100.00,SSW,199,10.0,16.0,87,-99.99,,,0.01,4.650000,,2014-12-20 16:50:00,
2014-12-20 09:00:00,41.0,37.0,-100.00,SSW,200,10.0,15.0,86,-99.99,,,0.01,45.669998,,2014-12-20 17:00:00,
2014-12-20 09:44:00,41.0,37.0,-100.00,SSW,200,10.0,15.0,86,-99.99,,,0.01,45.669998,,2014-12-20 17:44:00,
2014-12-20 09:53:00,41.0,37.0,-100.00,SSW,200,10.0,15.0,86,-99.99,,,0.01,45.669998,,2014-12-20 17:53:00,
2014-12-20 10:00:00,41.0,38.0,-100.00,SSW,203,11.0,16.0,89,-99.99,,,0.01,45.560001,,2014-12-20 18:00:00,
2014-12-20 10:42:00,41.0,38.0,-100.00,SSW,203,11.0,16.0,89,-99.99,,,0.01,45.560001,,2014-12-20 18:42:00,
2014-12-20 10:52:00,41.0,38.0,-100.00,SSW,203,11.0,16.0,89,-99.99,,,0.01,45.560001,,2014-12-20 18:52:00,
2014-12-20 11:00:00,42.0,39.0,-100.00,SSW,198,10.0,17.0,89,-99.99,,,0.01,49.279999,,2014-12-20 19:00:00,
2014-12-20 11:43:00,42.0,39.0,-100.00,SSW,198,10.0,17.0,89,-99.99,,,0.01,49.279999,,2014-12-20 19:43:00,
2014-12-20 11:53:00,42.0,39.0,-100.00,SSW,198,10.0,17.0,89,-99.99,,,0.01,49.279999,,2014-12-20 19:53:00,
2014-12-20 12:00:00,42.0,39.0,-100.00,SSW,202,12.0,19.0,89,-99.99,,,0.01,70.550003,,2014-12-20 20:00:00,
2014-12-20 12:42:00,42.0,39.0,-100.00,SSW,202,12.0,19.0,89,-99.99,,,0.01,70.550003,,2014-12-20 20:42:00,
2014-12-20 12:52:00,42.0,39.0,-100.00,SSW,202,12.0,19.0,89,-99.99,,,0.01,70.550003,,2014-12-20 20:52:00,
2014-12-20 13:00:00,41.0,39.0,-100.00,SSW,200,10.0,17.0,92,-99.99,,,0.01,26.150000,,2014-12-20 21:00:00,
2014-12-20 13:43:00,41.0,39.0,-100.00,SSW,200,10.0,17.0,92,-99.99,,,0.01,26.150000,,2014-12-20 21:43:00,
2014-12-20 13:54:00,41.0,39.0,-100.00,SSW,200,10.0,17.0,92,-99.99,,,0.01,26.150000,,2014-12-20 21:54:00,
2014-12-20 14:00:00,41.0,39.0,-100.00,SSW,208,12.0,19.0,92,-99.99,,,0.01,19.290001,,2014-12-20 22:00:00,
2014-12-20 14:42:00,41.0,39.0,-100.00,SSW,208,12.0,19.0,92,-99.99,,,0.01,19.290001,,2014-12-20 22:42:00,
2014-12-20 14:53:00,41.0,39.0,-100.00,SSW,208,12.0,19.0,92,-99.99,,,0.01,19.290001,,2014-12-20 22:53:00,
2014-12-20 15:00:00,40.0,38.0,-100.00,SSW,204,12.0,18.0,93,-99.99,,,0.02,8.250000,,2014-12-20 23:00:00,
2014-12-20 15:42:00,40.0,38.0,-100.00,SSW,204,12.0,18.0,93,-99.99,,,0.02,8.250000,,2014-12-20 23:42:00,
2014-12-20 15:53:00,40.0,38.0,-100.00,SSW,204,12.0,18.0,93,-99.99,,,0.02,8.250000,,2014-12-20 23:53:00,
2014-12-20 16:00:00,40.0,38.0,-100.00,SSW,211,14.0,24.0,92,-99.99,,,0.02,1.050000,,2014-12-21 00:00:00,
2014-12-20 16:42:00,40.0,38.0,-100.00,SSW,211,14.0,24.0,92,-99.99,,,0.02,1.050000,,2014-12-21 00:42:00,
2014-12-20 16:52:00,40.0,38.0,-100.00,SSW,211,14.0,24.0,92,-99.99,,,0.02,1.050000,,2014-12-21 00:52:00,